TimeCDT,TemperatureF,Dew PointF,Humidity,Sea Level PressureIn,VisibilityMPH,Wind Direction,Wind SpeedMPH,Gust SpeedMPH,PrecipitationIn,Events,Conditions,WindDirDegrees,DateUTC
12:15 AM,42.8,37.4,81,29.62,10.0,North,19.6,26.5,N/A,,Overcast,350,2012-10-19 05:15:00
12:34 AM,42.8,37.4,81,29.62,10.0,North,20.7,26.5,N/A,,Overcast,350,2012-10-19 05:34:00
12:54 AM,42.8,37.4,81,29.63,10.0,North,18.4,24.2,N/A,,Overcast,350,2012-10-19 05:54:00
1:15 AM,42.8,37.4,81,29.63,10.0,North,16.1,23.0,N/A,,Overcast,350,2012-10-19 06:15:00
1:54 AM,42.8,37.4,81,29.64,10.0,North,15.0,-,N/A,,Overcast,350,2012-10-19 06:54:00
2:15 AM,42.8,37.4,81,29.65,10.0,North,17.3,21.9,N/A,,Light Drizzle,350,2012-10-19 07:15:00
2:34 AM,42.8,37.4,81,29.65,10.0,North,12.7,-,0.01,Rain,Light Rain,350,2012-10-19 07:34:00
2:54 AM,42.8,37.4,81,29.66,7.0,North,9.2,-,0.01,,Light Drizzle,360,2012-10-19 07:54:00
3:14 AM,42.8,37.4,81,29.66,7.0,North,10.4,-,0.01,Rain,Light Rain,360,2012-10-19 08:14:00
3:34 AM,42.8,37.4,81,29.66,5.0,NNW,12.7,16.1,0.01,,Light Drizzle,340,2012-10-19 08:34:00
3:54 AM,42.8,37.4,81,29.66,7.0,North,10.4,-,0.02,,Drizzle,360,2012-10-19 08:54:00
4:15 AM,41.0,37.4,87,29.66,4.0,North,8.1,-,N/A,,Light Drizzle,350,2012-10-19 09:15:00
4:34 AM,41.0,37.4,87,29.67,7.0,NNW,9.2,-,0.01,,Light Drizzle,340,2012-10-19 09:34:00
4:54 AM,41.0,37.4,87,29.67,7.0,NNW,11.5,17.3,0.01,,Overcast,340,2012-10-19 09:54:00
5:14 AM,41.0,35.6,81,29.67,10.0,NNW,11.5,-,N/A,,Overcast,340,2012-10-19 10:14:00
5:35 AM,41.0,35.6,81,29.67,4.0,North,11.5,-,N/A,Rain,Light Rain,350,2012-10-19 10:35:00
5:54 AM,41.0,35.6,81,29.67,5.0,North,10.4,-,N/A,Rain,Light Rain,350,2012-10-19 10:54:00
6:14 AM,41.0,35.6,81,29.68,10.0,North,11.5,-,N/A,,Overcast,350,2012-10-19 11:14:00
6:35 AM,41.0,35.6,81,29.68,10.0,NNW,13.8,23.0,N/A,,Overcast,340,2012-10-19 11:35:00
6:54 AM,41.0,35.6,81,29.68,10.0,North,12.7,18.4,N/A,,Overcast,360,2012-10-19 11:54:00
7:14 AM,41.0,35.6,81,29.69,10.0,North,11.5,17.3,N/A,,Overcast,360,2012-10-19 12:14:00
7:35 AM,41.0,35.6,81,29.69,10.0,North,13.8,19.6,N/A,,Overcast,360,2012-10-19 12:35:00
7:54 AM,41.0,35.6,81,29.69,7.0,North,18.4,-,N/A,,Light Drizzle,360,2012-10-19 12:54:00
8:14 AM,41.0,35.6,81,29.70,10.0,North,10.4,-,N/A,Rain,Rain,360,2012-10-19 13:14:00
8:35 AM,41.0,35.6,81,29.70,7.0,North,15.0,18.4,0.01,Rain,Rain,10,2012-10-19 13:35:00
8:54 AM,41.0,35.6,81,29.70,10.0,North,10.4,-,0.04,Rain,Light Rain,350,2012-10-19 13:54:00
9:14 AM,41.0,35.6,81,29.71,10.0,North,9.2,-,N/A,,Drizzle,350,2012-10-19 14:14:00
9:35 AM,41.0,35.6,81,29.71,10.0,North,9.2,-,N/A,,Drizzle,360,2012-10-19 14:35:00
9:54 AM,41.0,35.6,81,29.71,7.0,North,9.2,-,0.01,Rain,Rain,350,2012-10-19 14:54:00
10:14 AM,41.0,35.6,81,29.70,10.0,North,9.2,-,N/A,,Light Drizzle,350,2012-10-19 15:14:00
10:34 AM,41.0,35.6,81,29.71,7.0,North,10.4,-,N/A,,Scattered Clouds,350,2012-10-19 15:34:00
10:54 AM,41.0,37.4,87,29.71,5.0,North,9.2,-,N/A,,Scattered Clouds,350,2012-10-19 15:54:00
11:14 AM,41.0,37.4,87,29.72,5.0,North,10.4,-,N/A,Rain,Light Rain,360,2012-10-19 16:14:00
11:34 AM,41.0,37.4,87,29.72,4.0,North,12.7,16.1,N/A,,Overcast,10,2012-10-19 16:34:00
11:54 AM,42.8,37.4,81,29.73,2.0,North,9.2,-,N/A,,Haze,10,2012-10-19 16:54:00
12:14 PM,42.8,37.4,81,29.73,2.5,North,10.4,-,N/A,,Haze,10,2012-10-19 17:14:00
12:34 PM,42.8,37.4,81,29.73,3.0,North,10.4,-,N/A,,Haze,10,2012-10-19 17:34:00
12:54 PM,42.8,37.4,81,29.72,4.0,North,10.4,-,N/A,Rain,Light Rain,360,2012-10-19 17:54:00
1:15 PM,42.8,37.4,81,29.72,10.0,North,10.4,-,N/A,Rain,Light Rain,360,2012-10-19 18:15:00
1:34 PM,42.8,37.4,81,29.72,10.0,North,9.2,-,N/A,,Light Drizzle,360,2012-10-19 18:34:00
1:54 PM,42.8,37.4,81,29.72,7.0,North,9.2,-,N/A,Rain,Light Rain,360,2012-10-19 18:54:00
2:15 PM,42.8,37.4,81,29.71,10.0,North,9.2,-,0.01,Rain,Light Rain,360,2012-10-19 19:15:00
2:34 PM,42.8,37.4,81,29.71,10.0,North,8.1,-,0.01,Rain,Light Rain,350,2012-10-19 19:34:00
2:54 PM,42.8,37.4,81,29.70,10.0,NNE,8.1,-,0.01,Rain,Light Rain,20,2012-10-19 19:54:00
3:15 PM,42.8,37.4,81,29.70,10.0,NNE,6.9,-,N/A,,Clear,20,2012-10-19 20:15:00
3:34 PM,42.8,37.4,81,29.71,10.0,NE,6.9,-,N/A,,Clear,40,2012-10-19 20:34:00
3:54 PM,42.8,37.4,81,29.70,10.0,ENE,6.9,-,N/A,,Clear,60,2012-10-19 20:54:00
4:15 PM,42.8,37.4,81,29.71,7.0,North,4.6,-,N/A,,Scattered Clouds,360,2012-10-19 21:15:00
4:34 PM,42.8,37.4,81,29.71,3.0,North,3.5,-,N/A,,Haze,10,2012-10-19 21:34:00
4:54 PM,42.8,37.4,81,29.71,1.8,North,4.6,-,N/A,,Haze,10,2012-10-19 21:54:00
5:14 PM,42.8,37.4,81,29.72,4.0,Calm,Calm,-,N/A,,Haze,0,2012-10-19 22:14:00
5:34 PM,42.8,37.4,81,29.72,4.0,North,3.5,-,N/A,,Haze,360,2012-10-19 22:34:00
5:54 PM,42.8,37.4,81,29.72,4.0,North,4.6,-,N/A,,Haze,350,2012-10-19 22:54:00
6:14 PM,42.8,37.4,81,29.73,10.0,Calm,Calm,-,N/A,,Overcast,0,2012-10-19 23:14:00
6:34 PM,42.8,37.4,81,29.73,10.0,Calm,Calm,-,N/A,,Scattered Clouds,0,2012-10-19 23:34:00
6:54 PM,42.8,37.4,81,29.73,10.0,Calm,Calm,-,N/A,,Mostly Cloudy,0,2012-10-19 23:54:00
7:14 PM,42.8,37.4,81,29.73,2.0,NW,3.5,-,N/A,,Overcast,310,2012-10-20 00:14:00
7:34 PM,42.8,37.4,81,29.73,0.8,Calm,Calm,-,N/A,,Haze,0,2012-10-20 00:34:00
7:54 PM,42.8,37.4,81,29.73,0.8,NW,4.6,-,N/A,,Haze,310,2012-10-20 00:54:00
8:14 PM,42.8,37.4,81,29.72,1.2,NW,5.8,-,N/A,,Haze,320,2012-10-20 01:14:00
8:35 PM,42.8,37.4,81,29.72,1.2,NNW,3.5,-,N/A,,Haze,330,2012-10-20 01:35:00
8:54 PM,42.8,37.4,81,29.73,1.5,Calm,Calm,-,N/A,,Haze,0,2012-10-20 01:54:00
9:14 PM,42.8,37.4,81,29.72,0.5,NNE,3.5,-,N/A,,Haze,20,2012-10-20 02:14:00
9:35 PM,42.8,37.4,81,29.72,1.2,NE,3.5,-,N/A,,Haze,40,2012-10-20 02:35:00
9:54 PM,42.8,37.4,81,29.72,1.5,NE,3.5,-,0.01,,Haze,40,2012-10-20 02:54:00
10:14 PM,42.8,37.4,81,29.72,0.8,Calm,Calm,-,N/A,,Haze,0,2012-10-20 03:14:00
10:35 PM,42.8,37.4,81,29.72,0.5,Calm,Calm,-,N/A,,Haze,0,2012-10-20 03:35:00
10:54 PM,42.8,37.4,81,29.72,1.8,Calm,Calm,-,N/A,,Haze,0,2012-10-20 03:54:00
11:14 PM,42.8,37.4,81,29.71,10.0,SSE,3.5,-,N/A,,Overcast,150,2012-10-20 04:14:00
11:35 PM,42.8,37.4,81,29.72,10.0,South,3.5,-,N/A,,Mostly Cloudy,190,2012-10-20 04:35:00
11:54 PM,42.8,37.4,81,29.72,10.0,SSW,3.5,-,N/A,,Mostly Cloudy,200,2012-10-20 04:54:00